Starlink 32323

operational
NORAD ID: 61677 Int'l Des: 2024-193 Owner: SPXS Country: US Constellation: starlink
LEOCIRCULAR

About Starlink 32323

Description loading...

Live Position

Loading 3D Globe...

Upcoming Passes

Altitude History

Altitude vs Time

uPlot chart will show altitude changes over time

Two-Line Element Set

1 61677U 24193S 25349.65066845 .00000597 00000-0 32276-4 0 9994
2 61677 53.1602 121.0903 0000569 41.5382 318.5662 15.30199261 63664
Epoch: Dec 15, 2025 • Age: 30 hours

Current Status

Altitude 476.3 km
Velocity 7.63 km/s
Sub-Earth Point 25.47°N, 142°W
Launch Date Oct 26, 2024
Age 1.1 years
Type internet

Technical Details

Classification Payload
Mass 730.00 kg
Dry Mass 700.00 kg
Total Mass 730.00 kg
Length 0.30 m
Diameter 4.10 m
Span 29.00 m
Shape Box + pan
Manufacturer SPXS
Bus Type Starlink V2M
Phase Status In Orbit
Owner/State SPXS/US

Large Constellations

Loading constellations...